Flag for Brazil Weather past 2 weeks in Santa María, Rio Grande do Sul, Brazil

Now
72 °F

Mostly cloudy.


Feels Like: 67 °F
Forecast: 60 / 74 °F
Wind: 1 mph from Southwest

Location: Porto Alegre Aero-Porto

Current Time: Apr 21, 2015 at 12:05:33 AM

Latest Report: Apr 20, 2015 at 11:00 PM


Visibility: 4 mi

Pressure: 29.89 "Hg

Humidity: 94%

Dew point: 70 °F

Location of Santa MaríaLocation

Historic Weather in Santa María — Graph

°F

Santa María temperature yesterday

Maximum temperature yesterday: 73 °F (at 10:00 AM)
Minimum temperature yesterday: 70 °F (at 4:00 AM)
Average temperature yesterday: 71 °F

Past Weeks' High & Low Weather Summary

 TemperatureHumidityPressure
High88 °F (Apr 14, 4:00 PM)100% (Apr 7, 6:00 AM)30.15 "Hg (Apr 7, 6:00 AM)
Low55 °F (Apr 8, 5:00 AM)24% (Apr 12, 2:00 PM)29.77 "Hg (Apr 20, 3:00 PM)
Average71 °F78%29.99 "Hg
* Reported Apr 5 10:00 PM — Apr 20 10:00 PM, Santa María, Weather by CustomWeather, © 2015

Note: Actual official high and low records may vary slightly from our data, if they occured in-between our weather recording intervals... More about our weather records

Advertising

Santa María weather history for previous 24 hours

 ConditionsComfort  
Time TempWeatherWind HumidityBarometerVisibility
10:00 PM
Mon, Apr 20
72 °FMostly cloudy.3 mph94%29.89 "Hg4 mi
9:00 PM72 °FFog.No wind94%29.86 "Hg2 mi
8:00 PM72 °FFog.2 mph94%29.86 "Hg2 mi
7:00 PM72 °FFog.2 mph94%29.83 "Hg2 mi
6:00 PM72 °FLight rain. Overcast.5 mph94%29.80 "Hg3 mi
5:00 PM73 °FPassing clouds.5 mph94%29.80 "Hg4 mi
4:00 PM72 °FFog.3 mph100%29.80 "Hg3 mi
3:00 PM72 °FLight rain. Cloudy.5 mph94%29.77 "Hg2 mi
2:00 PM72 °FLight rain. Mostly cloudy.6 mph100%29.80 "Hg2 mi
1:00 PM72 °FLight rain. Fog.5 mph100%29.86 "Hg2 mi
12:00 PM72 °FLight rain. Mostly cloudy.5 mph94%29.83 "Hg4 mi
11:00 AM73 °FLight rain. Mostly cloudy.5 mph94%29.86 "Hg4 mi
10:00 AM73 °FBroken clouds.7 mph94%29.83 "Hg4 mi
9:00 AM72 °FThunderstorms. Mostly cloudy.5 mph100%29.83 "Hg4 mi
8:00 AM70 °FThunderstorms. Fog.3 mph100%29.83 "Hg2 mi
7:00 AM70 °FThunderstorms. More clouds than sun.3 mph100%29.83 "Hg3 mi
6:00 AM70 °FLight rain. More clouds than sun.3 mph100%29.80 "Hg4 mi
5:00 AM70 °FPassing clouds.2 mph100%29.80 "HgN/A
4:00 AM70 °FPassing clouds.2 mph94%29.80 "HgN/A
3:00 AM72 °FPassing clouds.3 mph94%29.83 "HgN/A
2:00 AM72 °FPassing clouds.2 mph94%29.83 "HgN/A
1:00 AM72 °FClear.3 mph88%29.86 "Hg10 mi
12:00 AM72 °FClear.6 mph88%29.86 "Hg10 mi
Weather by CustomWeather, © 2015

See weather overviewHow to use our weather pages